This demonstration page uses our WeatherBlox Daily Observations layout. Learn more.

Hourly Observations for September 4, 2019

Temp ( °F °C ) Dew Point ( °F °C ) Humidity (%) Winds ( mph kmh ) Pressure ( in mb ) Visibility ( mi km ) Precip ( " mm )
12:15 am 00:15 Clear 61 16 59 15 94 94 Calm 30.11 1020 10 16.0934 0 0
12:35 am 00:35 Clear 61 16.3 59 15 92 92 Calm 30.11 1020 10 16.0934 0 0
12:55 am 00:55 Clear 60 15.4 59 14.8 96 96 NE 5 7 30.13 1020 10 16.0934 0 0
1:15 am 01:15 Clear 59 15.2 59 14.8 97 97 NNE 3 6 30.14 1021 10 16.0934 0 0
1:35 am 01:35 Clear 60 15.4 59 15 97 97 Calm 30.14 1021 10 16.0934 0 0
1:55 am 01:55 Clear 58 14.7 58 14.4 98 98 NE 3 6 30.13 1020 10 16.0934 0 0
2:15 am 02:15 Clear 58 14.6 58 14.5 99 99 NNE 5 7 30.14 1021 10 16.0934 0 0
2:35 am 02:35 Clear 59 15 58 14.6 97 97 NNE 5 7 30.15 1021 10 16.0934 0 0
2:55 am 02:55 Clear 58 14.5 58 14.2 98 98 NNE 3 6 30.13 1020 10 16.0934 0 0
3:15 am 03:15 Clear 58 14.3 57 14.1 99 99 NNE 3 6 30.15 1021 10 16.0934 0 0
3:35 am 03:35 Clear 58 14.3 58 14.2 99 99 NNE 3 6 30.15 1021 10 16.0934 0 0
3:55 am 03:55 Clear 58 14.5 58 14.2 98 98 Calm 30.13 1020 10 16.0934 0 0
4:15 am 04:15 Clear 58 14.2 57 14 99 99 Calm 30.14 1021 10 16.0934 0 0
4:35 am 04:35 Clear 58 14.3 57 14 98 98 Calm 30.16 1021 10 16.0934 0 0
4:55 am 04:55 Clear 57 14.1 56 13.4 96 96 Calm 30.15 1021 10 16.0934 0 0
5:15 am 05:15 Partly Cloudy 58 14.5 57 13.8 96 96 Calm 30.15 1021 10 16.0934 0 0
5:35 am 05:35 Mostly Cloudy 58 14.5 58 14.2 98 98 ENE 3 6 30.16 1021 10 16.0934 0 0
5:55 am 05:55 Mostly Cloudy 58 14.5 58 14.2 98 98 Calm 30.16 1021 10 16.0934 0 0
6:15 am 06:15 Cloudy 59 15 58 14.5 97 97 Calm 30.16 1021 10 16.0934 0 0
6:35 am 06:35 Cloudy 60 15.3 58 14.7 96 96 E 5 7 30.16 1021 10 16.0934 0 0
6:55 am 06:55 Mostly Cloudy 60 15.6 58 14.4 93 93 ESE 3 6 30.15 1021 10 16.0934 0 0
7:15 am 07:15 Mostly Cloudy 58 14.7 57 14 96 96 E 5 7 30.16 1021 10 16.0934 0 0
7:35 am 07:35 Mostly Cloudy 59 15 57 13.9 93 93 Calm 30.17 1022 10 16.0934 0 0
7:55 am 07:55 Partly Cloudy 59 15 57 13.9 93 93 Calm 30.18 1022 10 16.0934 0 0
8:15 am 08:15 Cloudy 61 15.9 58 14.3 90 90 SE 5 7 30.17 1022 10 16.0934 0 0
8:35 am 08:35 Cloudy 61 16.3 57 14.1 87 87 ESE 6 9 30.17 1022 10 16.0934 0 0
8:55 am 08:55 Cloudy 63 17.2 58 14.4 84 84 SE 6 9 30.17 1022 10 16.0934 0 0
9:15 am 09:15 Cloudy 64 17.7 58 14.6 82 82 SE 7 11 30.16 1021 10 16.0934 0 0
9:35 am 09:35 Partly Cloudy 65 18.5 59 15 80 80 SE 6 9 30.14 1021 10 16.0934 0 0
9:55 am 09:55 Sunny 67 19.5 58 14.5 73 73 SE 10 17 30.13 1020 10 16.0934 0 0
10:15 am 10:15 Sunny 69 20.4 56 13.5 65 65 SE 12 19 30.12 1020 10 16.0934 0 0
10:35 am 10:35 Sunny 71 21.5 56 13.3 60 60 SE 13 20 30.11 1020 10 16.0934 0 0
10:55 am 10:55 Sunny 71 21.7 55 12.8 57 57 SE 10 17 30.11 1020 10 16.0934 0 0
11:15 am 11:15 Sunny 72 22.2 56 13.1 56 56 SE 13 20 30.11 1020 10 16.0934 0 0
11:35 am 11:35 Sunny 73 22.7 56 13.6 57 57 SSE 10 17 30.1 1019 10 16.0934 0 0
11:55 am 11:55 Sunny 73 23 57 13.7 56 56 SE 12 19 30.1 1019 10 16.0934 0 0
12:15 pm 12:15 Sunny 73 23 57 14.1 57 57 SE 12 19 30.1 1019 10 16.0934 0 0
12:35 pm 12:35 Sunny 74 23.3 58 14.3 57 57 SE 12 19 30.09 1019 10 16.0934 0 0
12:55 pm 12:55 Sunny 75 23.9 58 14.4 55 55 SE 10 17 30.08 1019 10 16.0934 0 0
1:15 pm 13:15 Sunny 76 24.3 60 15.4 58 58 SE 9 15 30.07 1018 10 16.0934 0 0
1:35 pm 13:35 Mostly Cloudy 77 24.8 58 14.5 53 53 SSE 12 19 30.07 1018 10 16.0934 0 0
1:55 pm 13:55 Mostly Cloudy 76 24.7 58 14.4 53 53 SE 13 20 30.07 1018 10 16.0934 0 0
2:15 pm 14:15 Cloudy 77 24.8 58 14.5 53 53 SE 10 17 30.06 1018 10 16.0934 0 0
2:35 pm 14:35 Mostly Cloudy 77 25.1 59 14.9 53 53 SE 12 19 30.05 1017 10 16.0934 0 0
2:55 pm 14:55 Mostly Cloudy 77 25.1 59 15.2 54 54 SE 9 15 30.04 1017 10 16.0934 0 0
3:15 pm 15:15 Mostly Cloudy 78 25.6 60 15.3 53 53 SE 9 15 30.03 1017 10 16.0934 0 0
3:35 pm 15:35 Partly Cloudy 79 26 59 15.1 51 51 ESE 14 22 30.02 1017 10 16.0934 0 0
3:55 pm 15:55 Sunny 79 26.2 60 15.3 51 51 ESE 15 24 30.01 1016 10 16.0934 0 0
4:15 pm 16:15 Sunny 79 26.3 60 15.3 51 51 SE 12 19 30 1016 10 16.0934 0 0
4:35 pm 16:35 Sunny 79 26.2 60 15.5 52 52 SSE 13 20 30 1016 10 16.0934 0 0
4:55 pm 16:55 Sunny 79 26.3 60 15.6 52 52 SE 13 20 29.99 1015 10 16.0934 0 0
5:15 pm 17:15 Sunny 79 26.1 60 15.5 52 52 SE 12 19 29.99 1015 10 16.0934 0 0
5:35 pm 17:35 Sunny 78 25.8 60 15.7 54 54 SE 16 26 29.97 1015 10 16.0934 0 0
5:55 pm 17:55 Sunny 78 25.7 61 16.2 56 56 SE 14 22 29.97 1015 10 16.0934 0 0
6:15 pm 18:15 Sunny 78 25.3 62 16.4 58 58 SE 13 20 29.97 1015 10 16.0934 0 0
6:35 pm 18:35 Sunny 77 25 62 16.8 60 60 SE 12 19 29.97 1015 10 16.0934 0 0
6:55 pm 18:55 Sunny 76 24.5 63 17 63 63 ESE 8 13 29.97 1015 10 16.0934 0 0
7:15 pm 19:15 Sunny 74 23.6 64 17.5 69 69 ESE 8 13 29.98 1015 10 16.0934 0 0
7:35 pm 19:35 Sunny 73 22.9 64 17.7 73 73 ESE 6 9 29.97 1015 10 16.0934 0 0
7:55 pm 19:55 Sunny 71 21.9 64 17.7 77 77 ESE 7 11 29.98 1015 10 16.0934 0 0
8:15 pm 20:15 Clear 68 20.2 64 18 87 87 E 6 9 30 1016 10 16.0934 0 0
8:35 pm 20:35 Clear 67 19.6 64 17.8 89 89 E 7 11 30 1016 10 16.0934 0 0
8:55 pm 20:55 Clear 67 19.5 64 17.6 89 89 ESE 6 9 30 1016 10 16.0934 0 0
9:15 pm 21:15 Clear 66 18.7 63 17.4 92 92 ESE 6 9 30.01 1016 10 16.0934 0 0
9:35 pm 21:35 Clear 66 18.7 64 17.5 93 93 ESE 6 9 30.02 1017 10 16.0934 0 0
9:55 pm 21:55 Clear 66 18.7 63 17.4 92 92 ESE 5 7 30.01 1016 10 16.0934 0 0
10:15 pm 22:15 Clear 64 18 63 17.1 95 95 ESE 6 9 30.01 1016 10 16.0934 0 0
10:35 pm 22:35 Clear 64 18 63 17.2 95 95 ESE 7 11 30.01 1016 10 16.0934 0 0
10:55 pm 22:55 Clear 65 18.4 63 17.3 93 93 SE 7 11 30.01 1016 10 16.0934 0 0
11:15 pm 23:15 Clear 65 18.2 63 17.1 93 93 SE 7 11 30 1016 10 16.0934 0 0
11:35 pm 23:35 Clear 65 18.2 63 17.1 93 93 SE 8 13 30 1016 10 16.0934 0 0
11:55 pm 23:55 Clear 65 18.5 63 17.2 92 92 SSE 9 15 30 1016 10 16.0934 0 0

Powered by AerisWeather